Regional Weather Roundup
Issued by NWS Kansas City/Pleasant Hill, MO

Home | Current Version | Previous Version | Graphics & Text | Print | Product List | Glossary Off
Versions: 1 2 3 4 5 6 7 8 9 10 11 12 13 14 15 16 17 18 19 20 21 22 23 24 25 26 27

000
ASUS43 KEAX 261510
RWREAX

WEATHER ROUNDUP FOR EASTERN KANSAS AND NORTHWEST MISSOURI
NATIONAL WEATHER SERVICE KANSAS CITY/PLEASANT HILL MO
1000 AM CDT MON SEP 26 2016

KSZ040-057-103>105-MOZ028-029-037-043-261600-
...KANSAS CITY METROPOLITAN AREA...

CITY           SKY/WX    TMP DP  RH WIND       PRES   REMARKS
K.C. INTL      SUNNY     58  45  62 W7        30.26S
K.C. DOWNTOWN  SUNNY     61  46  57 NW5       30.26S
LEES SUMMIT    SUNNY     61  48  62 W6        30.27R
OLATHE - IXD   SUNNY     59  47  64 NW6       30.29R
OLATHE - OJC   SUNNY     58  44  60 W5        30.28R
LAWRENCE       SUNNY     60  52  74 NW3       30.28F

$$

MOZ001>008-011>017-020>025-030>033-038>040-044>046-053-054-261600-
...NORTHERN AND CENTRAL MISSOURI...

CITY           SKY/WX    TMP DP  RH WIND       PRES   REMARKS
ST. JOSEPH     SUNNY     60  45  57 W3        30.26S
MOSBY            N/A     63  46  55 NW5       30.26S
WHITEMAN AFB   MOSUNNY   63  49  60 NW6       30.25R
CLINTON        SUNNY     63  50  63 NW6       30.27R
SEDALIA        SUNNY     65  46  50 NW7       30.26R
WARSAW         NOT AVBL
CHILLICOTHE      N/A     63  46  54 VRB5      30.24R
KIRKSVILLE     SUNNY     62  44  51 W8        30.20S

$$

MOZ041-047>049-056>058-063>065-088>090-097-261600-
...EASTERN AND SOUTHERN MISSOURI...

CITY           SKY/WX    TMP DP  RH WIND       PRES   REMARKS
ST. LOUIS INTL NOT AVBL
SPIRIT OF STL  MOSUNNY   66  52  60 NW8       30.18R
COLUMBIA       SUNNY     63  49  60 NW8       30.22S
JEFFERSON CITY SUNNY     63  50  62 NW6       30.22R
ROLLA          SUNNY     62  52  69 NW10      30.21R
OSAGE BEACH    SUNNY     63  52  67 VRB3      30.25R
SPRINGFIELD    SUNNY     64  49  57 N12       30.25R
BRANSON        PTSUNNY   61  57  88 N7        30.26R
JOPLIN         SUNNY     64  52  64 NE6       30.28R
WEST PLAINS    PTSUNNY   63  55  75 N6        30.23R

$$

IAZ060-094-KSZ022-034>040-054-083-096-NEZ052-066-093-261600-
...KANSAS...SOUTHEAST NEBRASKA AND IOWA...

CITY           SKY/WX    TMP DP  RH WIND       PRES   REMARKS
TOPEKA         SUNNY     58  48  69 SW6       30.29S
MANHATTAN      SUNNY     57  47  69 CALM      30.31S
EMPORIA        SUNNY     60  47  61 N5        30.31R
CHANUTE        SUNNY     63  48  58 N8        30.30R
WICHITA        MOSUNNY   62  45  53 NW3       30.33R
OMAHA          SUNNY     60  41  49 NW12      30.24S
LINCOLN        SUNNY     61  40  45 W8        30.28S
FALLS CITY     SUNNY     59  46  62 W6        30.26R
LAMONI         SUNNY     60  42  51 NW15      30.22R
DES MOINES     SUNNY     61  41  47 NW12      30.16S

$$





USA.gov is the U.S. government's official web portal to all federal, state and local government web resources and services.